This is the latest recevied weather packets stored in our database for station/object SV2LPQ-2. If no packets are shown the sender has not sent any weather packets the latest 10 day(s).
| Time | Temp. | Humidity | Pressure | Rain* | Wind** | Luminosity | Snow |
|---|---|---|---|---|---|---|---|
| 1777567910 | 10° C | 85% | 1042.5 hPa | 1.52 mm | - | - | - |
| 1777567410 | 10° C | 85% | 1042.5 hPa | 1.52 mm | - | - | - |
| 1777566910 | 10° C | 85% | 1042.5 hPa | 2.03 mm | - | - | - |
| 1777566410 | 10° C | 85% | 1042.5 hPa | 2.54 mm | - | - | - |
| 1777565910 | 10.56° C | 86% | 1042.5 hPa | 2.54 mm | - | - | - |
| 1777565409 | 10.56° C | 87% | 1042.5 hPa | 3.05 mm | - | - | - |
| 1777564909 | 10.56° C | 85% | 1042.5 hPa | 2.54 mm | - | - | - |
| 1777564409 | 10.56° C | 84% | 1042.5 hPa | 3.05 mm | - | - | - |
| 1777563909 | 11.11° C | 86% | 1042.5 hPa | 2.54 mm | - | - | - |
| 1777563409 | 11.11° C | 86% | 1042.5 hPa | 2.03 mm | - | - | - |
| 1777562909 | 11.11° C | 85% | 1042.5 hPa | 1.52 mm | - | - | - |
| 1777562409 | 11.11° C | 83% | 1042.5 hPa | 1.02 mm | - | - | - |
| 1777561909 | 11.67° C | 81% | 1042.5 hPa | 0.51 mm | - | - | - |
| 1777561409 | 11.67° C | 81% | 1042.5 hPa | 0.51 mm | - | - | - |
| 1777560908 | 11.67° C | 79% | 1042.5 hPa | 0 mm | - | - | - |
| 1777560408 | 12.78° C | 77% | 1042.5 hPa | 0 mm | - | - | - |
| 1777559909 | 12.78° C | 76% | 1042.5 hPa | 0 mm | - | - | - |
| 1777559409 | 12.78° C | 75% | 1042.5 hPa | 0 mm | - | - | - |
| 1777558908 | 12.22° C | 73% | 1042.5 hPa | 0 mm | - | - | - |
| 1777558408 | 12.22° C | 72% | 1042.5 hPa | 0 mm | - | - | - |
| 1777557908 | 12.78° C | 72% | 1042.5 hPa | 0 mm | - | - | - |
| 1777557408 | 12.78° C | 73% | 1042.5 hPa | 0 mm | - | - | - |
| 1777556908 | 12.78° C | 73% | 1042.5 hPa | 0 mm | - | - | - |
| 1777555907 | 13.33° C | 71% | 1042.5 hPa | 0 mm | - | - | - |
| 1777555407 | 13.33° C | 70% | 1042.5 hPa | 0 mm | - | - | - |
* Rain latest hour (hover to see other rain measurements)
** Current wind speed in m/s (hover to see current wind gust speed)